Weather History for Ardmore, OK

Change the Weather History Date:

Monday, December 30, 2013

  Actual Average Record
Temperature  
Mean Temperature 30 °F -  
Max Temperature 42 °F 51 °F 78 °F (2008)
Min Temperature 19 °F 32 °F 19 °F (2012)
Degree Days  
Heating Degree Days 34    
Moisture  
Dew Point 18 °F    
Average Humidity 68    
Maximum Humidity 94    
Minimum Humidity 39    
Precipitation  
Precipitation 0.00 in - - ()
Sea Level Pressure  
Sea Level Pressure 30.31 in    
Wind  
Wind Speed 7 mph (NNW)    
Max Wind Speed 12 mph    
Max Gust Speed 16 mph    
Visibility 10 miles    
Events      
Averages and records for this station are not official NWS values.
T = Trace of Precipitation, MM = Missing Value Source: NWS Daily Summary

Daily Weather History Graph

Daily Weather History Graph

Search for Another Location

Airport:

Trip Planner

Search our weather history database for the weather conditions in past years. The results will help you decide how hot, cold, wet, or windy it might be!

Date:

Astronomy

Dec. 30, 2013 Rise Set
Actual Time 7:33 AM CST 5:27 PM CST
Civil Twilight 7:06 AM CST 5:55 PM CST
Nautical Twilight 6:34 AM CST 6:26 PM CST
Astronomical Twilight 6:04 AM CST 6:57 PM CST
Moon 5:27 AM CST (12/30) 4:00 PM CST (12/30)
Length of Visible Light 10h 49m
Length of Day
9h 53m
Waning Crescent, 4% of the Moon is Illuminated
Dec 30
Waning Crescent
Jan 1
New
Jan 7
First Quarter
Jan 15
Full
Jan 23
Last Quarter

Hourly Weather History & Observations

Time (CST) Temp. Windchill Dew Point Humidity Pressure Visibility Wind Dir Wind Speed Gust Speed Precip Events Conditions
12:15 AM 28.8 °F 19.0 °F 17.1 °F 62% 30.29 in 10.0 mi North 11.5 mph - N/A   Overcast
12:35 AM 28.4 °F 19.7 °F 16.5 °F 61% 30.29 in 10.0 mi NNW 9.2 mph - N/A   Mostly Cloudy
12:55 AM 28.2 °F 19.5 °F 16.7 °F 62% 30.29 in 10.0 mi North 9.2 mph - N/A   Mostly Cloudy
1:15 AM 27.7 °F 19.6 °F 15.6 °F 61% 30.29 in 10.0 mi NNW 8.1 mph - N/A   Mostly Cloudy
1:35 AM 27.1 °F 18.9 °F 16.2 °F 63% 30.28 in 10.0 mi NNW 8.1 mph - N/A   Mostly Cloudy
1:55 AM 26.6 °F 17.5 °F 17.1 °F 67% 30.27 in 10.0 mi NNW 9.2 mph - N/A   Mostly Cloudy
2:15 AM 26.2 °F 16.4 °F 16.9 °F 68% 30.28 in 10.0 mi NNW 10.4 mph - N/A   Mostly Cloudy
2:35 AM 25.7 °F 18.0 °F 16.3 °F 68% 30.28 in 10.0 mi NNW 6.9 mph - N/A   Mostly Cloudy
2:55 AM 25.5 °F 16.9 °F 16.2 °F 68% 30.28 in 10.0 mi NNW 8.1 mph - N/A   Mostly Cloudy
3:15 AM 25.2 °F 16.5 °F 16.7 °F 70% 30.29 in 10.0 mi North 8.1 mph - N/A   Mostly Cloudy
3:35 AM 24.8 °F 14.0 °F 16.5 °F 71% 30.28 in 10.0 mi North 11.5 mph - N/A   Overcast
3:55 AM 24.3 °F 13.3 °F 16.2 °F 71% 30.28 in 10.0 mi North 11.5 mph - N/A   Overcast
4:15 AM 23.5 °F 12.4 °F 15.8 °F 72% 30.29 in 10.0 mi North 11.5 mph - N/A   Mostly Cloudy
4:35 AM 22.5 °F 11.7 °F 15.6 °F 75% 30.28 in 10.0 mi North 10.4 mph 16.1 mph N/A   Scattered Clouds
4:55 AM 22.1 °F 11.3 °F 15.3 °F 75% 30.27 in 10.0 mi North 10.4 mph - N/A   Clear
5:15 AM 21.7 °F 13.2 °F 15.1 °F 76% 30.27 in 10.0 mi North 6.9 mph - N/A   Clear
5:35 AM 21.2 °F - 14.9 °F 77% 30.27 in 10.0 mi Calm Calm - N/A   Clear
6:55 AM 19.4 °F 14.3 °F 14.0 °F 80% 30.28 in 10.0 mi North 3.5 mph - N/A   Clear
7:55 AM 19.4 °F 14.3 °F 14.0 °F 80% 30.30 in 10.0 mi North 3.5 mph - N/A   Clear
8:55 AM 23.0 °F 18.4 °F 12.2 °F 63% 30.32 in 10.0 mi North 3.5 mph - N/A   Clear
10:55 AM 30.2 °F - 14.0 °F 51% 30.33 in 10.0 mi Calm Calm - N/A   Clear
11:55 AM 33.8 °F - 15.8 °F 48% 30.32 in 10.0 mi Calm Calm - N/A   Clear
12:55 PM 37.4 °F 32.8 °F 15.8 °F 41% 30.29 in 10.0 mi SW 5.8 mph - N/A   Clear
1:55 PM 39.2 °F 35.0 °F 17.6 °F 42% 30.27 in 10.0 mi WSW 5.8 mph - N/A   Clear
2:55 PM 41.0 °F 39.0 °F 19.4 °F 42% 30.27 in 10.0 mi WNW 3.5 mph - N/A   Clear
3:55 PM 42.8 °F - 19.4 °F 39% 30.26 in 10.0 mi Calm Calm - N/A   Clear
4:55 PM 41.0 °F - 19.4 °F 42% 30.29 in 10.0 mi Calm Calm - N/A   Clear
5:55 PM 35.6 °F - 19.4 °F 52% 30.30 in 10.0 mi Calm Calm - N/A   Clear
6:55 PM 32.0 °F - 19.4 °F 60% 30.34 in 10.0 mi Calm Calm - N/A   Clear
7:55 PM 26.6 °F - 19.4 °F 74% 30.37 in 10.0 mi Calm Calm - N/A   Clear
8:55 PM 28.4 °F - 23.0 °F 80% 30.38 in 10.0 mi Calm Calm - N/A   Clear
9:55 PM 26.6 °F - 23.0 °F 86% 30.40 in 10.0 mi Calm Calm - N/A   Clear
10:35 PM 24.3 °F - 22.6 °F 94% 30.40 in 10.0 mi Calm Calm - N/A   Clear
10:55 PM 25.0 °F - 21.7 °F 87% 30.40 in 10.0 mi Calm Calm - N/A   Clear
11:15 PM 23.5 °F - 21.7 °F 93% 30.40 in 10.0 mi Calm Calm - N/A   Clear
11:35 PM 23.0 °F - 20.7 °F 91% 30.40 in 10.0 mi Calm Calm - N/A   Clear
11:55 PM 23.0 °F - 20.5 °F 90% 30.40 in 10.0 mi Calm Calm - N/A   Clear